Starlink 30861

operational
NORAD ID: 58230 Int'l Des: 2023-171 Owner: SPXS Country: US Constellation: starlink
LEOCIRCULAR

关于 Starlink 30861

正在加载描述...

实时位置

正在加载3D地球...

即将过境

高度历史

Altitude vs Time

uPlot chart will show altitude changes over time

两行轨道根数

1 58230U 23171A 26036.57271491 .00000551 00000-0 55882-4 0 9998
2 58230 43.0019 100.5685 0001161 265.5708 94.5001 15.02537786124891
Epoch: Feb 5, 2026 • Age: 10 hours

当前状态

高度 561.9 km
速度 7.59 km/s
星下点 37.93°N, 24.42°E
发射日期 Nov 8, 2023
运行时间 2.2 years
类型 internet

技术详情

分类 Payload
质量 730.00 kg
干质量 700.00 kg
总质量 730.00 kg
长度 0.30 m
直径 4.10 m
跨度 29.00 m
形状 Box + pan
制造商 SPXS
平台类型 Starlink V2M
阶段状态 In Orbit
所有者/国家 SPXS/US

大型星座

Loading constellations...